FW5647 Weather Reports


time (UTC)temp
F
wind
direction
speed
knots
gust
knots
rain 1hr
in
rain 24hr
in
rain mn
in
humidity
%
barometer
mb
20260903161548 75 116 0.0 2.6 0.00 0.15 0.15 86 1015.2
20260903160058 74 0 0.9 5.2 0.00 0.15 0.15 87 1015.7
20260903154543 74 350 0.0 2.6 0.00 0.15 0.15 94 1016.0
20260903153041 74 0 0.0 10.4 0.00 0.15 0.15 94 1015.5
20260903151541 74 319 0.0 1.7 0.00 0.15 0.15 94 1016.1
20260903150058 75 0 0.0 0.0 0.00 0.15 0.15 93 1014.9
20260903144544 75 0 0.0 7.8 0.00 0.15 0.15 93 1014.6
20260903143042 75 0 2.6 7.8 0.00 0.15 0.15 95 1015.5
20260903141543 76 0 0.0 0.0 0.00 0.15 0.15 95 1015.2
20260903140047 76 0 0.0 0.0 0.00 0.15 0.15 95 1014.9
20260903134543 76 0 0.0 0.0 0.00 0.15 0.15 96 1014.7
20260903133042 76 0 0.0 3.5 0.00 0.15 0.15 96 1015.3
20260903131541 75 281 0.0 1.7 0.00 0.15 0.15 97 1015.1
20260903130041 74 0 0.0 0.0 0.00 0.15 0.15 97 1015.1
20260903124551 72 0 0.0 0.0 0.00 0.15 0.15 97 1015.0
20260903123040 71 0 0.0 0.0 0.00 0.15 0.15 97 1015.3
20260903121538 70 0 0.0 0.0 0.00 0.15 0.15 97 1015.2
20260903120057 69 0 0.0 0.0 0.00 0.15 0.15 97 1015.1
20260903114540 68 0 0.0 0.0 0.00 0.15 0.15 96 1015.1
20260903113048 68 0 0.0 0.0 0.00 0.15 0.15 96 1015.1
20260903111546 68 0 0.0 0.0 0.00 0.15 0.15 96 1015.0
20260903110043 68 0 0.0 0.0 0.00 0.15 0.15 96 1014.9
20260903104547 68 0 0.0 0.0 0.00 0.15 0.15 96 1014.9
20260903103040 68 0 0.0 0.0 0.00 0.15 0.15 96 1014.6
20260903101547 68 0 0.0 0.0 0.00 0.15 0.15 96 1014.7
20260903100041 69 0 0.0 0.0 0.00 0.15 0.15 96 1014.6
20260903094543 69 0 0.0 0.0 0.00 0.15 0.15 96 1014.6
20260903093052 69 0 0.0 0.0 0.00 0.15 0.15 96 1014.6
20260903091543 69 0 0.0 0.0 0.00 0.15 0.15 96 1014.6
20260903090042 69 0 0.0 0.0 0.00 0.15 0.15 96 1014.4
20260903084540 70 0 0.0 0.0 0.00 0.15 0.15 96 1014.4
20260903083039 70 0 0.0 0.0 0.00 0.15 0.15 95 1014.2
20260903081542 70 0 0.0 0.0 0.00 0.15 0.15 95 1014.3
20260903080040 70 0 0.0 0.0 0.00 0.15 0.15 95 1014.4
20260903074544 71 0 0.0 0.0 0.00 0.15 0.15 95 1014.3
20260903073050 71 247 0.0 0.9 0.00 0.15 0.15 95 1014.4
20260903071541 71 0 0.0 1.7 0.00 0.15 0.15 95 1014.6
20260903070048 71 0 0.0 0.0 0.00 0.15 0.15 95 1014.5
20260903064543 71 0 0.0 0.0 0.00 0.15 0.15 95 1014.0
20260903063047 71 0 0.0 0.0 0.00 0.15 0.15 94 1014.1
20260903061551 71 0 0.0 0.0 0.00 0.15 0.15 94 1014.0
20260903060043 71 0 0.0 0.0 0.00 0.15 0.15 94 1014.2
20260903054553 72 0 0.0 0.0 0.00 0.15 0.15 94 1014.1
20260903053051 72 0 0.0 0.0 0.00 0.15 0.15 93 1014.1
20260903051544 72 0 0.0 0.0 0.00 0.15 0.15 93 1014.0
20260903050049 72 0 0.0 0.0 0.15 0.15 0.15 93 1014.0
20260903044554 72 0 0.0 0.0 0.15 0.15 0.15 92 1014.1
20260903043047 73 0 0.0 0.0 0.15 0.15 0.15 90 1013.7
20260903041543 74 0 0.0 13.9 0.15 0.15 0.15 88 1013.6
20260903040049 75 0 0.0 6.1 0.00 0.00 0.00 81 1013.9
20260903034551 74 0 0.0 1.7 0.00 0.00 0.00 81 1013.9
20260903033045 74 127 0.0 4.3 0.00 0.00 0.00 79 1014.1
20260903031622 75 0 0.0 4.3 0.00 0.00 0.00 78 1014.2
20260903030054 79 340 6.1 13.9 0.00 0.00 0.00 73 1014.2
20260903024548 81 0 0.9 4.3 0.00 0.00 0.00 80 1013.2
20260903023044 80 257 0.9 3.5 0.00 0.00 0.00 81 1012.3
20260903021543 79 0 0.0 0.0 0.00 0.00 0.00 83 1012.3
20260903020052 79 0 0.0 0.0 0.00 0.00 0.00 82 1013.5
20260903014555 80 0 0.0 0.0 0.00 0.00 0.00 81 1013.5
20260903013044 80 0 0.0 0.0 0.00 0.00 0.00 80 1013.4
20260903011556 81 0 0.0 0.0 0.00 0.00 0.00 79 1013.3
20260903010050 82 0 0.0 0.0 0.00 0.00 0.00 78 1013.0
20260903004550 82 0 0.0 0.9 0.00 0.00 0.00 77 1012.9
20260903003046 83 0 0.0 0.9 0.00 0.00 0.00 76 1012.8
20260903001544 84 0 0.0 0.0 0.00 0.00 0.00 74 1012.6
20260903000047 85 0 0.0 0.0 0.00 0.00 0.00 71 1012.7
20260902234554 87 0 0.0 0.9 0.00 0.00 0.00 70 1012.8
20260902233048 88 0 0.0 4.3 0.00 0.00 0.00 67 1012.7
20260902231549 89 264 0.0 7.0 0.00 0.00 0.00 64 1012.7
20260902230046 90 262 0.9 7.0 0.00 0.00 0.00 64 1012.6
20260902224551 90 245 0.9 7.0 0.00 0.00 0.00 63 1012.7
20260902223046 90 245 3.5 7.8 0.00 0.00 0.00 62 1012.7
20260902221541 90 226 0.9 10.4 0.00 0.00 0.00 61 1012.7
20260902220041 92 265 2.6 12.2 0.00 0.00 0.00 60 1012.2
20260902214547 92 219 1.7 7.8 0.00 0.00 0.00 60 1012.7
20260902213048 92 226 0.9 12.2 0.00 0.00 0.00 59 1013.0
20260902211547 92 247 1.7 15.6 0.00 0.00 0.00 58 1013.2
20260902210046 92 226 2.6 12.2 0.00 0.00 0.00 58 1013.2
20260902204542 92 201 2.6 9.6 0.00 0.00 0.00 60 1013.2
20260902203058 92 218 3.5 12.2 0.00 0.00 0.00 61 1013.3
20260902201545 92 188 2.6 8.7 0.00 0.00 0.00 57 1013.6
20260902200053 93 184 1.7 13.0 0.00 0.00 0.00 56 1013.6
20260902194544 93 244 3.5 10.4 0.00 0.00 0.00 57 1013.9
20260902193042 92 101 1.7 13.0 0.00 0.00 0.00 57 1014.2
20260902191550 92 227 4.3 10.4 0.00 0.00 0.00 58 1014.3
20260902190049 92 261 4.3 12.2 0.00 0.00 0.00 59 1014.3
20260902184550 92 185 2.6 11.3 0.00 0.00 0.00 61 1014.4
20260902183107 92 244 1.7 8.7 0.00 0.00 0.00 59 1014.4
20260902181543 92 328 3.5 8.7 0.00 0.00 0.00 58 1014.6
20260902180042 91 177 4.3 8.7 0.00 0.00 0.00 59 1014.8
20260902174540 91 271 3.5 7.0 0.00 0.00 0.00 61 1015.0
20260902173044 92 308 1.7 7.0 0.00 0.00 0.00 61 1015.3
20260902171541 91 331 1.7 9.6 0.00 0.00 0.00 62 1015.3
20260902170046 91 234 1.7 5.2 0.00 0.00 0.00 62 1015.7
20260902164543 90 285 2.6 7.8 0.00 0.00 0.00 63 1015.7
20260902163057 90 252 2.6 6.1 0.00 0.00 0.00 63 1015.6